Hourly Data Report for December 05, 2016

TORONTO CITY
ONTARIO

43°40'00.000" N
79°24'00.000" W
112.50 m
6158355
71508
XTO

Download Data

Hourly Data (December 2016)
Hourly Data Report for December 5, 2016
TIME
LST
Temp Definition
°C
Dew Point Definition
°C
Rel Hum Definition
%
Precip. Amount Definition
mm

Wind Dir Definition
10's deg

Wind Spd Definition
km/h
Visibility Definition
km
Stn Press Definition
kPa
Hmdx Definition


Wind Chill Definition


Weather Definition


00:00 1.6 0.6 93 0.8 LegendMM LegendMM   99.81     LegendNANA
01:00 1.9 0.6 91 0.8 LegendMM LegendMM   99.65     LegendNANA
02:00 1.8 0.5 91 1.7 LegendMM LegendMM   99.63     LegendNANA
03:00 1.8 0.7 93 1.3 LegendMM LegendMM   99.57     LegendNANA
04:00 1.8 1.1 95 0.8 LegendMM LegendMM   99.53     LegendNANA
05:00 1.8 1.2 96 0.5 LegendMM LegendMM   99.48     LegendNANA
06:00 2.2 1.6 96 0.2 LegendMM LegendMM   99.51     LegendNANA
07:00 1.8 1.2 95 0.0 LegendMM LegendMM   99.60     LegendNANA
08:00 1.7 1.0 95 0.0 LegendMM LegendMM   99.71     LegendNANA
09:00 2.9 1.6 92 0.0 LegendMM LegendMM   99.79     LegendNANA
10:00 3.6 1.8 89 0.0 LegendMM LegendMM   99.88     LegendNANA
11:00 4.6 2.2 85 0.0 LegendMM LegendMM   99.95     LegendNANA
12:00 4.2 -0.6 71 0.0 LegendMM LegendMM   99.97     LegendNANA
13:00 4.7 -0.9 67 0.0 LegendMM LegendMM   99.97     LegendNANA
14:00 5.0 -1.3 64 0.0 LegendMM LegendMM   100.06     LegendNANA
15:00 5.9 -1.2 60 0.0 LegendMM LegendMM   100.12     LegendNANA
16:00 5.6 -1.3 61 0.0 LegendMM LegendMM   100.20     LegendNANA
17:00 4.8 -1.8 62 0.0 LegendMM LegendMM   100.24     LegendNANA
18:00 4.3 -1.2 67 0.0 LegendMM LegendMM   100.33     LegendNANA
19:00 5.0 -1.0 65 0.0 LegendMM LegendMM   100.37     LegendNANA
20:00 4.9 -1.2 64 0.0 LegendMM LegendMM   100.40     LegendNANA
21:00 5.0 -0.4 68 0.0 LegendMM LegendMM   100.43     LegendNANA
22:00 4.9 -0.3 69 0.0 LegendMM LegendMM   100.46     LegendNANA
23:00 4.7 -0.4 69 0.0 LegendMM LegendMM   100.49     LegendNANA

Notes on Data Quality.

Legend

  • E = Estimated
  • M = Missing
  • NA = Not Available*
  • [empty] = Indicates an unobserved value
Date modified: